FENGYUN 1C DEB

Satellite information

Favourite Embed

Satellite Type and Status

DEBRISIN ORBIT

Key statistics

Satellite FENGYUN 1C DEB at a glance.

Uptime

9714

Days in orbit

Revolutions

≈ 13.8

Per day

Orbit

SSO

Sun Synchronous Orbit

Inclination

98.6

Latest

Satellite identification and parameters

Extended collection of information and parameters for FENGYUN 1C DEB.

Object identification

Identified? True

Debris? True

Object name: FENGYUN 1C DEB

International designator: 1999-025BCX

Object number (NORAD): 31005

Object ID (CCSDS): 31005

Country: PEOPLES REPUBLIC OF CHINA (PRC)

Current information (Y/N): Y

RCS size: SMALL

Orbital parameters

Period: 104.101 minutes

Inclination: 98.6125 deg

SMA: 7330.433 km

Apoapsis: 1084.67 km

Periapsis: 819.925 km

RAAN: 119.235 deg

Eccentricy: 0.01805796

Argument of periapsis: 329.1595 deg

Mean anomaly: 52.6031 deg

Mean motion: 13.83274436 rev/day

Mean motion (dot): 0.00001985 rev/day2

B* drag term: 0.0016268947 1/REarth

Two-line elements (TLE)

Creation date: Dec. 11, 2025, 7:14 p.m.

Reference frame: TEME

Reference center: EARTH

Epoch: Dec. 11, 2025, 8:55 a.m. UTC

TLE line 0: 0 FENGYUN 1C DEB

TLE line 1: 1 31005U 99025BCX 25345.37160773 .00001985 00000-0 16269-2 0 9996

TLE line 2: 2 31005 98.6125 119.2350 0180580 329.1595 52.6031 13.83274436942620

Live tracking on map

Real-time ground track for satellite FENGYUN 1C DEB.

In-orbit conjunctions

A list of the most updated potential collisions computed for object FENGYUN 1C DEB.

Target Orbit TCA Probability of collision Miss distance Type
METEOR 2-11 LEO 2025-10-08 21:37:27 0.0002975971 176.0 (m) PAYLOAD
COSMOS 1000 LEO 2025-01-06 08:56:09 0.000101438 238.0 (m) PAYLOAD
CZ-6A DEB SSO 2024-05-29 03:14:21 0.0001453856 134.0 (m) DEBRIS

Associated space launch

Chinese polar orbiting meteorological satellite

FENGYUN 1C DEB was lifted into orbit during the mission ‘Long March 4B | Feng Yun 1C’, on board a Long March 4B space rocket.

The launch took place on May 10, 1999, 1:33 a.m. from Launch Complex 7.

For more information about the launch, click the button.

Launch to space Long March 4B | Feng Yun 1C
Long March 4B | Feng Yun 1C

Agency: N/A

Status: Launch Successful

Launch date: May 10, 1999, 1:33 a.m. UTC

Rocket: Long March 4B

Launch pad: Launch Complex 7

Location: Taiyuan Satellite Launch Center, People's Republic of China

...

Latest news about this satellite

There are no fresh news available about this satellite. Check back as we update our databases every day.


Newsletter sign-up

Weekly statistics, charts and insights to help you stay on top of the space industry.